Location: Unspecified
(0.0000°N, 0.0000°E)
Time: 00:06:38
(UTC+00:00)

Envisat - Pass Details

Date: 18 February 2020
Orbit: 764 x 766 km, 98.1° (Epoch: 25 February)

Event Time Altitude Azimuth Distance (km) Brightness Sun altitude
Rises 19:03:51 0° 194° (SSW) 3,231 6.6 -12.2°
Reaches altitude 10° 19:06:40 10° 210° (SSW) 2,302 6.1 -12.9°
Maximum altitude 19:10:24 21° 257° (WSW) 1,670 5.8 -13.8°
Drops below altitude 10° 19:14:09 10° 306° (NW) 2,294 6.1 -14.7°
Sets 19:16:58 0° 321° (NW) 3,217 6.6 -15.4°
